THORAD AGENA D DEB, 42527

Orbit data source: Space-Track

THORAD AGENA D DEB, 42527 is space debris in SSO originally from a launch on Wed, 08 Apr 1970 UTC launched from the Air Force Western Test Range (AFWTR). Debris objects in space refer to the collection of defunct objects orbiting the Earth. Examples of debris include non-operational satellites, rocket bodies, and fragments generated from explosions, collisions, or faulty payload assembly.

Loading next visibility...
Identifier
42527, 1970-025SH
Orbit
SSO
Country
Flag of USUS
Related business
Manufacturer
Unknown
Mission
Spacecraft
Bus & Motor
Unknown
Mass
Unknown
Launch date (UTC)
1970-04-08 (56 years ago)
Launch vehicle
Unknown
Launch site
Air Force Western Test Range (AFWTR)
Object type
Payload
Rocket body
Debris
Shape & HBR
Unknown shape, 0.1 m
Radar Cross Section
Small (<0.1 m²)

Expand to show TLE details & history
Last TLE update: 1 week ago

TLE from 1 week ago
0 THORAD AGENA D DEB
1 42527U 70025SH  26164.62026341  .00006625  00000-0  19754-2 0  9994
2 42527  99.1308 122.6207 0022856 336.5876  23.4269 14.43246391650894
Epoch: 2026-06-13T14:53Z
TLE epoch observation values (Epoch: 2026-06-13T14:53:10.758Z)
Latitude
-0.00007°
Longitude
-2.60686°
Altitude
735.783 km
Speed
7.495 km/s
True Right ascension
08h 10m 28s
True Declination
0° 00' 00"
Sunlit
Object was in daylight at epoch
Visualization orbit readout
Latitude
Unknown
Longitude
Unknown
Altitude
Unknown
Speed
Unknown
Apparent Right ascension
Unknown
Apparent Declination
Unknown
Sunlit
N/A
Visualization observer readout
Local Sidereal Time
21:41:33
Azimuth
Unknown
Elevation
Unknown
Doppler factor
Unknown
Orbital elements
Apogee altitude
761.221 km
Perigee altitude
728.66 km
Semi-major axis
7,123.078 km
Eccentricity
0.00229
Inclination
99.1308°
RAAN
122.6207°
Arg. of periapsis
336.5876°
True anomaly
23.5313°
Mean anomaly
23.4269°
Eccentric anomaly
23.47907°
Mean motion
3.61029 °/min
Orbital period
99.72 mins
BSTAR
0.0019754
Loading maneuver chart data...
Computing Atmospheric mass density...

Documentation

Showing up to 5 results
|